Preview of NWS' New Version of Forecast
This preview is not operational and should not be used for support decisions.

Regional Weather Roundup (RWR)

Issued by National Weather Service (NWS)

                            
000
ASUS43 KLSX 211457
RWRMO 

WEATHER SUMMARY FOR MISSOURI
NATIONAL WEATHER SERVICE SPRINGFIELD MO
1000 AM CDT SAT SEP 21 2019

NOTE: "FAIR" INDICATES FEW OR NO CLOUDS BELOW 12,000 FEET WITH NO
       SIGNIFICANT WEATHER AND/OR OBSTRUCTIONS TO VISIBILITY.
       CURRENT SKY AND/OR WEATHER CONDITIONS ARE NOT AVAILABLE FOR
       CHILLICOTHE AND FARMINGTON.

MOZ001>031-035>038-043-044-053-054-211600-
...NORTHERN AND WESTERN MISSOURI...
  
CITY           SKY/WX    TMP DP  RH WIND       PRES   REMARKS
KANSAS CTY INT CLOUDY    75  71  87 S16G28    29.96F                  
LEE'S SUMMIT     N/A     77  70  79 S16       30.00S                  
ST JOSEPH      LGT RAIN  74  71  91 S12       29.94S FOG              
CHILLICOTHE      N/A     75  72  90 VRB7      30.00S                  
     
$$
MOZ066>068-077>081-088>096-101>105-211600-
...SOUTHWEST MISSOURI...
  
CITY           SKY/WX    TMP DP  RH WIND       PRES   REMARKS
SPRINGFIELD    MOSUNNY   78  68  71 S22G31    30.11S                  
JOPLIN         CLOUDY    76  69  79 S20G29    30.08R                  
BRANSON        PTSUNNY   75  68  78 S7        30.17R                  
               
$$
MOZ032>034-039>042-045>050-055>058-069>072-211600-
...CENTRAL MISSOURI...  
  
CITY           SKY/WX    TMP DP  RH WIND       PRES   REMARKS
COLUMBIA       NOT AVBL                                               
JEFFERSON CITY PTSUNNY   79  69  71 S8        30.08S                  
ROLLA          MOSUNNY   79  67  66 S21G30    30.13S                  
SEDALIA        CLOUDY    75  69  81 S17G25    30.06R                  
WARRENSBURG    CLOUDY    73  68  83 S9G17     30.02S                  
               
$$
MOZ051-052-059>065-211600-
...EAST CENTRAL MISSOURI...
  
CITY           SKY/WX    TMP DP  RH WIND       PRES   REMARKS
ST LOUIS INTL  CLOUDY    76  66  71 S14G21    30.14S                  
                   
$$
MOZ072>076-082>087-097>100-106>115-211600-
...SOUTH CENTRAL AND SOUTHEAST MISSOURI...
  
CITY           SKY/WX    TMP DP  RH WIND       PRES   REMARKS
CAPE GIRARDEAU NOT AVBL                                               
POPLAR BLUFF   PTSUNNY   76  65  68 S8        30.20S                  
WEST PLAINS    MOSUNNY   75  69  81 S10       30.19S                  
                                       
$$